Regional Weather Roundup
Issued by NWS Spokane, WA

Home | Current Version | Previous Version | Text Only | Print | Product List | Glossary On
Versions: 1 2 3 4 5 6 7 8 9 10 11 12 13 14 15 16 17 18 19 20 21 22 23 24 25 26 27 28 29 30 31 32 33 34 35 36 37 38 39 40 41 42 43 44 45 46 47 48 49 50
000
NZUS01 KOTX 281810
RWROTX
EASTERN WASHINGTON/NORTHERN IDAHO ROUNDUP
NATIONAL WEATHER SERVICE, SPOKANE WA
1000 AM PST FRI NOV 28 2014

Note: "fair" indicated few or no clouds below 12,000 feet with no
significant weather and/or obstructions to visibility.

...NORTHEAST WASHINGTON AND NORTHERN IDAHO PANHANDLE...

CITY           SKY/WX    TMP DP  RH WIND       PRES   REMARKS
SPOKANE INTL   CLOUDY    50  42  74 S23G32    29.48F
SPOKANE DOWNTO CLOUDY    54  42  64 SW21G37   29.49F
COEUR D ALENE  CLOUDY    54  43  66 SW18G24   29.49F
DEER PARK      PTSUNNY   50  43  77 S18G26    29.48F
SANDPOINT      CLOUDY    52  41  66 SW14G22   29.47F

...SOUTHEAST WASHINGTON AND SOUTHERN IDAHO PANHANDLE...

CITY           SKY/WX    TMP DP  RH WIND       PRES   REMARKS
WALLA WALLA    CLOUDY    60  38  43 SW17      29.58F
PULLMAN/MOSCOW CLOUDY    51  43  74 S10       29.59F
LEWISTON       CLOUDY    58  42  55 S16       29.58F
LOWELL           N/A     42  41  96 CALM      29.69F

...COLUMBIA BASIN...

CITY           SKY/WX    TMP DP  RH WIND       PRES   REMARKS
EPHRATA        SUNNY     52  45  77 S10       29.44F
MOSES LAKE     MOSUNNY   53  44  71 S15       29.46F
TRI CITIES     CLOUDY    59  44  57 E10       29.54F
HERMISTON      CLOUDY    56  47  71 N3        29.58F
PENDLETON      CLOUDY    57  38  48 S26G38    29.60F

...EAST SLOPES CASCADES...

CITY           SKY/WX    TMP DP  RH WIND       PRES   REMARKS
THE DALLES     CLOUDY    51  50  96 CALM      29.59F
YAKIMA         PTSUNNY   58  44  60 S20G31    29.47F
ELLENSBURG     CLOUDY    43  39  86 N6        29.48F
WENATCHEE      SUNNY     51  40  65 CALM      29.40F
OMAK           CLOUDY    47  38  71 SW12      29.39F

...SOUTHERN BRITISH COLUMBIA...

CITY           SKY/WX    TMP DP  RH WIND       PRES   REMARKS
PENTICTON      CLOUDY    41  34  75 VRB16G26  29.40R
CASTLEGAR      CLOUDY    46  39  76 SE5       29.38F
CRANBROOK      PTSUNNY   46  39  76 SE15G22   29.32F

...WESTERN MONTANA...

CITY           SKY/WX    TMP DP  RH WIND       PRES   REMARKS
MISSOULA       CLOUDY    45  40  82 SE10      29.63F

...NEIGHBORING CITIES...

CITY           SKY/WX    TMP DP  RH WIND       PRES   REMARKS
SEATTLE        HVY RAIN  46  45  93 N22G32    29.51S FOG
CALGARY        LGT SNOW  -4 -11  71 N28G33    29.64R WCI -30



USA.gov is the U.S. government's official web portal to all federal, state and local government web resources and services.